{"data":{"norad_id":53011,"intl_designator":"2022-076AB","name":"STARLINK-4265","alt_names":[],"object_type":"PAYLOAD","status":"ACTIVE","operator":null,"country":"US","launch_date":"2022-07-07","launch_site_code":"AFETR","launch_vehicle":null,"mission":null,"orbit_class":"UNKNOWN","rcs_meters":null,"size_class":null,"mass_kg":null,"dimensions":null,"purposes":["comms"],"wikipedia_slug":null,"has_3d_model":false,"image_url":null,"decayed_at":null,"tle_current":{"epoch":"2026-05-25T03:25:02.148672Z","epoch_age_seconds":56128,"freshness":"FRESH","line1":"1 53011U 22076AB  26145.14238598  .00000481  00000+0  48284-4 0  9997","line2":"2 53011  53.2153 100.9097 0001612  73.9505 286.1664 15.08840553214522","mean_motion":15.08840553,"eccentricity":0.0001612,"inclination_deg":53.2153,"raan_deg":100.9097,"arg_perigee_deg":73.9505,"mean_anomaly_deg":286.1664,"bstar":4.8284e-5,"rev_number":21452,"period_min":95.437519699273,"perigee_km":538.62653661863,"apogee_km":540.85686071108,"semimajor_km":6917.8786986649,"source":"CELESTRAK","updated_at":"2026-05-25T13:38:17.278887Z"}}}